When you browse on this site, cookies collect data to enhance your experience and personalize the content and advertising you see.
Visit our Privacy Policy to learn more. By continuing to use the site, you agree to this use of cookies and data.
  • In Austria
  • List of Countries
  • For 7 days
  • Water Temperature
  • Satellite Maps
  • Weather Map
  • News
  • Weather Widgets
  • user-avatar
    Login

    Hourly Weather Innsbruck

    Today, 21 May, Tuesday

    Time Temperature Precipitation Wind Pressure Humidity
    00:00 +2°C° 1.9 mm 1 mps 588 mmHg 96%
    01:00 +1°C° 1.9 mm 2 mps 588 mmHg 95%
    02:00 +1°C° 0.8 mm 2 mps 588 mmHg 95%
    03:00 +1°C° 0.8 mm 2 mps 588 mmHg 95%
    04:00 +1°C° 0.8 mm 2 mps 589 mmHg 95%
    05:00 +1°C° 0.3 mm 2 mps 589 mmHg 95%
    06:00 +2°C° 0.3 mm 2 mps 589 mmHg 94%
    07:00 +2°C° 0.3 mm 2 mps 590 mmHg 94%
    08:00 +3°C° 0.2 mm 2 mps 590 mmHg 92%
    09:00 +3°C° 0.2 mm 2 mps 591 mmHg 90%
    10:00 +4°C° 0.2 mm 2 mps 591 mmHg 88%
    11:00 +4°C° 0.4 mm 2 mps 591 mmHg 86%
    12:00 +4°C° 0.4 mm 2 mps 592 mmHg 85%
    13:00 +5°C° 0.4 mm 2 mps 592 mmHg 83%
    14:00 +5°C° 0.3 mm 2 mps 592 mmHg 82%
    15:00 +5°C° 0.3 mm 2 mps 592 mmHg 82%
    16:00 +5°C° 0.3 mm 2 mps 593 mmHg 81%
    17:00 +4°C° 0.2 mm 2 mps 593 mmHg 85%
    18:00 +3°C° 0.2 mm 2 mps 593 mmHg 89%
    19:00 +3°C° 0.2 mm 2 mps 592 mmHg 93%
    20:00 +2°C° 0.1 mm 2 mps 593 mmHg 94%
    21:00 +3°C° 0.1 mm 1 mps 593 mmHg 95%
    22:00 +2°C° 0.1 mm 1 mps 593 mmHg 96%
    23:00 +2°C° 0.1 mm 1 mps 593 mmHg 96%

    Tomorrow, 22 May, Wednesday

    Time Temperature Precipitation Wind Pressure Humidity
    00:00 +1°C° 0.1 mm 1 mps 593 mmHg 95%
    01:00 +1°C° 0.1 mm 1 mps 593 mmHg 95%
    02:00 +1°C° 0.1 mm 1 mps 593 mmHg 95%
    03:00 +1°C° 0.1 mm 1 mps 593 mmHg 94%
    04:00 +1°C° 0.1 mm 1 mps 593 mmHg 94%
    05:00 +2°C° 0.1 mm 1 mps 594 mmHg 92%
    06:00 +2°C° 0.1 mm 1 mps 594 mmHg 90%
    07:00 +3°C° 0.1 mm 1 mps 594 mmHg 88%
    08:00 +4°C° 0.1 mm 1 mps 595 mmHg 85%
    09:00 +4°C° 0.1 mm 2 mps 596 mmHg 82%
    10:00 +5°C° 0.1 mm 2 mps 596 mmHg 80%
    11:00 +5°C° 0.3 mm 2 mps 596 mmHg 79%
    12:00 +6°C° 0.3 mm 2 mps 596 mmHg 79%
    13:00 +6°C° 0.3 mm 2 mps 596 mmHg 79%
    14:00 +6°C° 0.3 mm 2 mps 596 mmHg 77%
    15:00 +7°C° 0.3 mm 2 mps 596 mmHg 76%
    16:00 +7°C° 0.3 mm 2 mps 596 mmHg 75%
    17:00 +6°C° 0.2 mm 2 mps 596 mmHg 80%
    18:00 +5°C° 0.2 mm 2 mps 596 mmHg 85%
    19:00 +4°C° 0.2 mm 2 mps 596 mmHg 90%
    20:00 +4°C° 0.1 mm 1 mps 596 mmHg 92%
    21:00 +4°C° 0.1 mm 1 mps 596 mmHg 94%
    22:00 +3°C° 0.1 mm 1 mps 596 mmHg 96%
    23:00 +3°C° 0.1 mm 1 mps 596 mmHg 96%

    Day after tomorrow, 23 May, Thursday

    Time Temperature Precipitation Wind Pressure Humidity
    00:00 +2°C° 0.1 mm 1 mps 596 mmHg 96%
    01:00 +2°C° 0.1 mm 1 mps 596 mmHg 95%
    02:00 +1°C° 0 mm 1 mps 596 mmHg 95%
    03:00 +1°C° 0 mm 1 mps 595 mmHg 95%
    04:00 0°C° 0 mm 1 mps 595 mmHg 96%
    05:00 +2°C° 0 mm 1 mps 596 mmHg 92%
    06:00 +3°C° 0 mm 1 mps 596 mmHg 88%
    07:00 +4°C° 0 mm 1 mps 597 mmHg 84%
    08:00 +6°C° 0 mm 1 mps 597 mmHg 78%
    09:00 +7°C° 0 mm 1 mps 598 mmHg 73%
    10:00 +8°C° 0 mm 1 mps 598 mmHg 67%
    11:00 +9°C° 0 mm 1 mps 599 mmHg 63%
    12:00 +9°C° 0 mm 2 mps 599 mmHg 59%
    13:00 +10°C° 0 mm 2 mps 599 mmHg 55%
    14:00 +10°C° 0 mm 2 mps 599 mmHg 56%
    15:00 +10°C° 0 mm 2 mps 598 mmHg 57%
    16:00 +9°C° 0 mm 2 mps 598 mmHg 57%
    17:00 +8°C° 0 mm 2 mps 597 mmHg 63%
    18:00 +7°C° 0 mm 2 mps 597 mmHg 69%
    19:00 +5°C° 0 mm 2 mps 596 mmHg 75%
    20:00 +5°C° 0 mm 1 mps 596 mmHg 81%
    21:00 +3°C° 0 mm 1 mps 595 mmHg 86%
    22:00 +1°C° 0 mm 1 mps 595 mmHg 91%
    23:00 +1°C° 0 mm 1 mps 595 mmHg 90%

    24 May, Friday

    Time Temperature Precipitation Wind Pressure Humidity
    00:00 +1°C° 0 mm 1 mps 594 mmHg 90%
    01:00 +1°C° 0 mm 1 mps 594 mmHg 89%
    02:00 +1°C° 0 mm 1 mps 594 mmHg 88%
    03:00 +1°C° 0 mm 1 mps 594 mmHg 87%
    04:00 0°C° 0 mm 1 mps 594 mmHg 86%
    05:00 +2°C° 0 mm 1 mps 594 mmHg 80%
    06:00 +5°C° 0 mm 1 mps 595 mmHg 75%
    07:00 +6°C° 0 mm 0 mps 596 mmHg 69%
    08:00 +7°C° 0 mm 0 mps 597 mmHg 64%
    09:00 +10°C° 0 mm 1 mps 597 mmHg 59%
    10:00 +12°C° 0 mm 1 mps 598 mmHg 54%
    11:00 +12°C° 0 mm 1 mps 598 mmHg 51%
    12:00 +13°C° 0 mm 1 mps 597 mmHg 49%
    13:00 +13°C° 0 mm 1 mps 597 mmHg 46%
    14:00 +13°C° 0 mm 1 mps 597 mmHg 50%
    15:00 +12°C° 0 mm 2 mps 596 mmHg 54%
    16:00 +12°C° 0 mm 2 mps 595 mmHg 58%
    17:00 +10°C° 0.5 mm 1 mps 595 mmHg 68%
    18:00 +9°C° 0.5 mm 1 mps 594 mmHg 77%
    19:00 +7°C° 0.5 mm 1 mps 593 mmHg 87%
    20:00 +6°C° 0.8 mm 1 mps 593 mmHg 90%
    21:00 +5°C° 0.8 mm 0 mps 593 mmHg 92%
    22:00 +4°C° 0.8 mm 0 mps 593 mmHg 94%
    23:00 +4°C° 0.6 mm 0 mps 593 mmHg 94%

    25 May, Saturday

    Time Temperature Precipitation Wind Pressure Humidity
    00:00 +4°C° 0.6 mm 0 mps 592 mmHg 94%
    01:00 +4°C° 0.6 mm 0 mps 592 mmHg 94%
    02:00 +3°C° 0.5 mm 0 mps 592 mmHg 94%
    03:00 +3°C° 0.5 mm 0 mps 592 mmHg 95%
    04:00 +3°C° 0.5 mm 0 mps 592 mmHg 95%
    05:00 +3°C° 0.4 mm 0 mps 592 mmHg 94%
    06:00 +4°C° 0.4 mm 0 mps 593 mmHg 94%
    07:00 +4°C° 0.4 mm 0 mps 593 mmHg 93%
    08:00 +6°C° 0.3 mm 1 mps 593 mmHg 91%
    09:00 +6°C° 0.3 mm 1 mps 594 mmHg 90%
    10:00 +7°C° 0.3 mm 1 mps 594 mmHg 88%
    11:00 +8°C° 0.5 mm 1 mps 594 mmHg 84%
    12:00 +8°C° 0.5 mm 1 mps 595 mmHg 81%
    13:00 +9°C° 0.5 mm 1 mps 595 mmHg 78%
    14:00 +8°C° 0.6 mm 1 mps 594 mmHg 81%
    15:00 +8°C° 0.6 mm 1 mps 594 mmHg 84%
    16:00 +6°C° 0.6 mm 2 mps 594 mmHg 87%
    17:00 +6°C° 1.4 mm 2 mps 594 mmHg 90%
    18:00 +5°C° 1.4 mm 2 mps 594 mmHg 94%
    19:00 +5°C° 1.4 mm 1 mps 594 mmHg 97%
    20:00 +5°C° 2 mm 1 mps 594 mmHg 97%
    21:00 +5°C° 2 mm 1 mps 594 mmHg 97%
    22:00 +4°C° 2 mm 1 mps 594 mmHg 98%
    23:00 +4°C° 0.6 mm 1 mps 594 mmHg 97%

    26 May, Sunday

    Time Temperature Precipitation Wind Pressure Humidity
    00:00 +4°C° 0.6 mm 1 mps 594 mmHg 97%
    01:00 +4°C° 0.6 mm 1 mps 594 mmHg 97%
    02:00 +4°C° 0.4 mm 1 mps 594 mmHg 97%
    03:00 +3°C° 0.4 mm 1 mps 594 mmHg 97%
    04:00 +3°C° 0.4 mm 1 mps 594 mmHg 97%
    05:00 +4°C° 0.2 mm 1 mps 594 mmHg 96%
    06:00 +4°C° 0.2 mm 1 mps 595 mmHg 95%
    07:00 +5°C° 0.2 mm 1 mps 595 mmHg 95%
    08:00 +5°C° 0.1 mm 2 mps 595 mmHg 89%
    09:00 +5°C° 0.1 mm 2 mps 596 mmHg 84%
    10:00 +6°C° 0.1 mm 2 mps 596 mmHg 79%
    11:00 +7°C° 0.1 mm 2 mps 597 mmHg 74%
    12:00 +8°C° 0.1 mm 2 mps 597 mmHg 69%
    13:00 +9°C° 0.1 mm 2 mps 597 mmHg 64%
    14:00 +9°C° 0 mm 2 mps 597 mmHg 63%
    15:00 +9°C° 0 mm 2 mps 597 mmHg 62%
    16:00 +10°C° 0 mm 2 mps 597 mmHg 61%
    17:00 +9°C° 0 mm 2 mps 597 mmHg 68%
    18:00 +7°C° 0 mm 2 mps 596 mmHg 74%
    19:00 +6°C° 0 mm 2 mps 596 mmHg 81%
    20:00 +6°C° 0 mm 1 mps 596 mmHg 86%
    21:00 +4°C° 0 mm 1 mps 595 mmHg 91%
    22:00 +3°C° 0 mm 1 mps 595 mmHg 96%
    23:00 +3°C° 0 mm 1 mps 595 mmHg 95%
    Show more